timestamp,wind_dir_avg,wind_spd_avg,wind_spd_max_dir,wind_spd_gust,battery_voltage,lat,long
2021-10-05 00:04:01+00:00,357.0,8.17,359.0,9.36,12.65,47.59359,-54.27349
2021-10-05 00:14:01+00:00,353.0,8.3,351.0,9.64,12.65,47.59359,-54.27349
2021-10-05 00:24:01+00:00,352.0,7.57,354.0,8.77,12.65,47.59359,-54.27349
2021-10-05 00:34:01+00:00,352.0,8.05,354.0,10.12,12.65,47.59359,-54.27349
2021-10-05 00:44:01+00:00,350.0,9.09,346.0,10.14,12.65,47.59359,-54.27349
2021-10-05 00:54:01+00:00,354.0,8.6,353.0,10.05,12.65,47.59359,-54.27349
2021-10-05 01:04:01+00:00,354.0,8.34,359.0,10.15,12.65,47.59359,-54.27349
2021-10-05 01:14:00+00:00,351.0,7.18,353.0,8.77,12.57,47.59359,-54.27349
2021-10-05 01:24:00+00:00,352.0,7.35,355.0,8.65,12.57,47.59359,-54.27349
2021-10-05 01:34:00+00:00,347.0,8.22,348.0,9.65,12.57,47.59359,-54.27349
2021-10-05 01:44:00+00:00,339.0,7.74,338.0,8.77,12.57,47.59359,-54.27349
2021-10-05 01:54:00+00:00,340.0,7.36,343.0,8.83,12.57,47.59359,-54.27349
2021-10-05 02:04:00+00:00,350.0,7.5,352.0,8.33,12.57,47.59359,-54.27349
2021-10-05 02:14:01+00:00,348.0,7.85,354.0,9.66,12.57,47.59359,-54.27349
2021-10-05 02:24:01+00:00,340.0,7.8,342.0,10.1,12.57,47.59359,-54.27349
2021-10-05 02:34:01+00:00,347.0,7.73,352.0,8.72,12.57,47.59359,-54.27349
2021-10-05 02:44:01+00:00,337.0,7.65,334.0,8.63,12.57,47.59359,-54.27349
2021-10-05 02:54:01+00:00,335.0,7.69,326.0,8.86,12.57,47.59359,-54.27349
2021-10-05 03:04:01+00:00,336.0,6.8,338.0,8.2,12.57,47.59359,-54.27349
2021-10-05 03:14:00+00:00,349.0,7.05,333.0,8.03,12.57,47.59359,-54.27349
2021-10-05 03:24:00+00:00,346.0,6.78,336.0,8.3,12.57,47.59359,-54.27349
2021-10-05 03:34:00+00:00,344.0,6.23,345.0,7.0,12.57,47.59359,-54.27349
2021-10-05 03:44:00+00:00,341.0,5.69,340.0,6.65,12.57,47.59359,-54.27349
2021-10-05 03:54:00+00:00,330.0,5.96,327.0,6.93,12.57,47.59359,-54.27349
2021-10-05 04:04:00+00:00,337.0,6.44,339.0,7.52,12.57,47.59359,-54.27349
2021-10-05 04:14:01+00:00,328.0,6.91,328.0,8.32,12.57,47.59359,-54.27349
2021-10-05 04:24:01+00:00,331.0,7.11,328.0,8.93,12.57,47.59359,-54.27349
2021-10-05 04:34:01+00:00,322.0,8.7,324.0,10.18,12.57,47.59359,-54.27349
2021-10-05 04:44:01+00:00,324.0,8.67,321.0,10.7,12.57,47.59359,-54.27349
2021-10-05 04:54:01+00:00,314.0,8.8,318.0,10.38,12.57,47.59359,-54.27349
2021-10-05 05:04:01+00:00,317.0,9.1,321.0,10.35,12.57,47.59359,-54.27349
2021-10-05 05:14:01+00:00,328.0,8.35,327.0,9.83,12.57,47.59359,-54.27349
2021-10-05 05:24:01+00:00,316.0,10.09,310.0,12.33,12.57,47.59359,-54.27349
2021-10-05 05:34:01+00:00,325.0,8.31,323.0,9.87,12.57,47.59359,-54.27349
2021-10-05 05:44:01+00:00,325.0,9.65,323.0,10.77,12.57,47.59359,-54.27349
2021-10-05 05:54:01+00:00,328.0,12.24,320.0,14.81,12.57,47.59359,-54.27349
2021-10-05 06:04:01+00:00,331.0,10.68,329.0,12.56,12.57,47.59359,-54.27349
2021-10-05 06:14:01+00:00,322.0,10.53,314.0,12.48,12.49,47.59359,-54.27349
2021-10-05 06:24:01+00:00,324.0,10.73,324.0,12.63,12.49,47.59359,-54.27349
2021-10-05 06:34:01+00:00,319.0,10.28,306.0,12.11,12.49,47.59359,-54.27349
2021-10-05 06:44:01+00:00,321.0,9.22,315.0,10.85,12.49,47.59359,-54.27349
2021-10-05 06:54:01+00:00,316.0,8.07,320.0,9.66,12.49,47.59359,-54.27349
2021-10-05 07:04:01+00:00,329.0,8.12,334.0,9.31,12.49,47.59359,-54.27349
2021-10-05 07:14:01+00:00,325.0,7.99,329.0,9.52,12.49,47.59359,-54.27349
2021-10-05 07:24:01+00:00,330.0,9.84,336.0,11.43,12.49,47.59359,-54.27349
2021-10-05 07:34:01+00:00,338.0,9.4,338.0,11.06,12.49,47.59359,-54.27349
2021-10-05 07:44:01+00:00,324.0,9.0,317.0,10.61,12.49,47.59359,-54.27349
2021-10-05 07:54:01+00:00,325.0,9.07,334.0,10.85,12.49,47.59359,-54.27349
2021-10-05 08:04:01+00:00,331.0,8.85,337.0,10.39,12.49,47.59359,-54.27349
2021-10-05 08:14:01+00:00,318.0,7.06,322.0,8.48,12.49,47.59359,-54.27349
2021-10-05 08:24:01+00:00,319.0,7.87,310.0,9.76,12.49,47.59359,-54.27349
2021-10-05 08:34:01+00:00,318.0,8.69,317.0,10.29,12.49,47.59359,-54.27349
2021-10-05 08:44:01+00:00,325.0,7.84,325.0,9.73,12.49,47.59359,-54.27349
2021-10-05 08:54:01+00:00,317.0,7.45,308.0,8.77,12.49,47.59359,-54.27349
2021-10-05 09:04:01+00:00,321.0,7.68,322.0,9.59,12.49,47.59359,-54.27349
2021-10-05 09:14:01+00:00,324.0,8.26,324.0,10.11,12.41,47.59359,-54.27349
2021-10-05 09:24:01+00:00,325.0,7.43,322.0,9.31,12.41,47.59359,-54.27349
2021-10-05 09:34:01+00:00,325.0,8.54,321.0,10.04,12.41,47.59359,-54.27349
2021-10-05 09:44:01+00:00,324.0,9.22,322.0,10.14,12.41,47.59359,-54.27349
2021-10-05 09:54:01+00:00,334.0,8.13,330.0,10.1,12.41,47.59359,-54.27349
2021-10-05 10:04:01+00:00,325.0,7.67,324.0,8.99,12.41,47.59359,-54.27349
2021-10-05 10:14:01+00:00,336.0,8.64,330.0,10.16,12.41,47.59359,-54.27349
2021-10-05 10:24:01+00:00,327.0,8.48,324.0,9.62,12.41,47.59359,-54.27349
2021-10-05 10:34:01+00:00,329.0,7.44,329.0,9.37,12.41,47.59359,-54.27349
2021-10-05 10:44:01+00:00,327.0,8.67,322.0,10.66,12.41,47.59359,-54.27349
2021-10-05 10:54:01+00:00,330.0,8.09,332.0,9.48,12.41,47.59359,-54.27349
2021-10-05 11:04:01+00:00,322.0,8.21,323.0,10.03,12.41,47.59359,-54.27349
2021-10-05 11:14:01+00:00,324.0,8.36,323.0,10.17,13.05,47.59359,-54.27349
2021-10-05 11:24:01+00:00,325.0,7.23,331.0,8.23,13.05,47.59359,-54.27349
2021-10-05 11:34:01+00:00,336.0,10.1,337.0,11.66,13.05,47.59359,-54.27349
2021-10-05 11:44:01+00:00,335.0,8.88,331.0,10.69,13.05,47.59359,-54.27349
2021-10-05 11:54:01+00:00,329.0,10.76,331.0,11.85,13.05,47.59359,-54.27349
2021-10-05 12:04:01+00:00,335.0,9.63,342.0,11.18,13.05,47.59359,-54.27349
2021-10-05 12:14:01+00:00,332.0,9.9,328.0,11.38,13.84,47.59359,-54.27349
2021-10-05 12:24:01+00:00,336.0,11.0,338.0,13.09,13.84,47.59359,-54.27349
2021-10-05 12:34:01+00:00,343.0,10.79,340.0,12.69,13.84,47.59359,-54.27349
2021-10-05 12:44:01+00:00,331.0,11.11,330.0,13.42,13.84,47.59359,-54.27349
2021-10-05 12:54:01+00:00,334.0,10.04,337.0,12.22,13.84,47.59359,-54.27349
2021-10-05 13:04:01+00:00,339.0,9.61,339.0,11.23,13.84,47.59359,-54.27349
2021-10-05 13:14:01+00:00,343.0,10.43,343.0,11.86,13.68,47.59359,-54.27349
2021-10-05 13:24:01+00:00,345.0,10.07,347.0,12.02,13.68,47.59359,-54.27349
2021-10-05 13:34:01+00:00,324.0,10.79,324.0,12.23,13.68,47.59359,-54.27349
2021-10-05 13:44:01+00:00,343.0,10.14,344.0,11.95,13.68,47.59359,-54.27349
2021-10-05 13:54:01+00:00,339.0,10.46,343.0,11.8,13.68,47.59359,-54.27349
2021-10-05 14:04:01+00:00,346.0,9.72,343.0,10.98,13.68,47.59359,-54.27349
2021-10-05 14:14:01+00:00,348.0,11.38,346.0,12.84,14.16,47.59359,-54.27349
2021-10-05 14:24:01+00:00,353.0,10.78,353.0,13.18,14.16,47.59359,-54.27349
2021-10-05 14:34:01+00:00,348.0,11.65,345.0,13.43,14.16,47.59359,-54.27349
2021-10-05 14:44:01+00:00,354.0,10.97,359.0,12.87,14.16,47.59359,-54.27349
2021-10-05 14:54:01+00:00,348.0,11.78,349.0,13.34,14.16,47.59359,-54.27349
2021-10-05 15:04:01+00:00,349.0,8.58,353.0,10.37,14.16,47.59359,-54.27349
2021-10-05 15:14:01+00:00,330.0,10.61,325.0,12.27,13.84,47.59359,-54.27349
2021-10-05 15:24:01+00:00,330.0,10.51,332.0,11.51,13.84,47.59359,-54.27349
2021-10-05 15:34:01+00:00,347.0,12.17,339.0,14.2,13.84,47.59359,-54.27349
2021-10-05 15:44:01+00:00,338.0,12.28,336.0,14.6,13.84,47.59359,-54.27349
2021-10-05 15:54:01+00:00,8.0,11.36,14.0,14.09,13.84,47.59359,-54.27349
2021-10-05 16:04:01+00:00,4.0,11.65,6.0,13.11,13.84,47.59359,-54.27349
2021-10-05 16:14:01+00:00,345.0,11.2,347.0,13.15,13.84,47.59359,-54.27349
2021-10-05 16:24:01+00:00,345.0,11.48,349.0,12.69,13.84,47.59359,-54.27349
2021-10-05 16:34:01+00:00,358.0,10.19,350.0,11.82,13.84,47.59359,-54.27349
2021-10-05 16:44:01+00:00,0.0,10.08,357.0,12.09,13.84,47.59359,-54.27349
2021-10-05 16:54:01+00:00,4.0,9.34,1.0,11.77,13.84,47.59359,-54.27349
2021-10-05 17:04:01+00:00,0.0,10.42,3.0,11.54,13.84,47.59359,-54.27349
2021-10-05 17:14:01+00:00,359.0,9.06,355.0,10.78,13.84,47.59359,-54.27349
2021-10-05 17:24:01+00:00,347.0,10.85,345.0,12.8,13.84,47.59359,-54.27349
2021-10-05 17:34:01+00:00,357.0,9.56,4.0,10.93,13.84,47.59359,-54.27349
2021-10-05 17:44:01+00:00,349.0,12.21,351.0,13.34,13.84,47.59359,-54.27349
2021-10-05 17:54:01+00:00,1.0,11.18,4.0,12.1,13.84,47.59359,-54.27349
2021-10-05 18:04:01+00:00,358.0,12.96,1.0,14.49,13.84,47.59359,-54.27349
2021-10-05 18:14:01+00:00,353.0,10.37,355.0,11.52,13.84,47.59359,-54.27349
2021-10-05 18:24:01+00:00,352.0,10.49,354.0,11.48,13.84,47.59359,-54.27349
2021-10-05 18:34:01+00:00,342.0,10.09,338.0,11.39,13.84,47.59359,-54.27349
2021-10-05 18:44:01+00:00,339.0,10.8,344.0,12.78,13.84,47.59359,-54.27349
2021-10-05 18:54:01+00:00,353.0,9.46,352.0,11.15,13.84,47.59359,-54.27349
2021-10-05 19:04:01+00:00,0.0,10.49,5.0,12.25,13.84,47.59359,-54.27349
2021-10-05 19:14:01+00:00,341.0,11.08,343.0,12.85,13.84,47.59359,-54.27349
2021-10-05 19:24:01+00:00,352.0,12.06,351.0,13.49,13.84,47.59359,-54.27349
2021-10-05 19:34:01+00:00,0.0,10.31,359.0,11.47,13.84,47.59359,-54.27349
2021-10-05 19:44:01+00:00,359.0,10.65,0.0,11.37,13.84,47.59359,-54.27349
2021-10-05 19:54:01+00:00,357.0,11.44,359.0,13.22,13.84,47.59359,-54.27349
2021-10-05 20:04:01+00:00,351.0,9.83,351.0,11.54,13.84,47.59359,-54.27349
2021-10-05 20:14:01+00:00,359.0,8.68,3.0,9.48,13.84,47.59359,-54.27349
2021-10-05 20:24:01+00:00,345.0,10.4,345.0,11.83,13.84,47.59359,-54.27349
2021-10-05 20:34:01+00:00,354.0,9.0,358.0,10.11,13.84,47.59359,-54.27349
2021-10-05 20:44:01+00:00,347.0,9.51,343.0,10.84,13.84,47.59359,-54.27349
2021-10-05 20:54:01+00:00,353.0,8.14,0.0,9.45,13.84,47.59359,-54.27349
2021-10-05 21:04:01+00:00,3.0,7.36,3.0,8.33,13.84,47.59359,-54.27349
2021-10-05 21:14:01+00:00,351.0,7.2,353.0,8.93,13.44,47.59359,-54.27349
2021-10-05 21:24:01+00:00,343.0,8.05,342.0,9.26,13.44,47.59359,-54.27349
2021-10-05 21:34:01+00:00,10.0,6.95,13.0,8.46,13.44,47.59359,-54.27349
2021-10-05 21:44:01+00:00,3.0,6.46,1.0,7.74,13.44,47.59359,-54.27349
2021-10-05 21:54:01+00:00,4.0,6.73,353.0,8.38,13.44,47.59359,-54.27349
2021-10-05 22:04:01+00:00,0.0,7.78,358.0,8.98,13.44,47.59359,-54.27349
2021-10-05 22:14:01+00:00,357.0,6.13,349.0,7.1,12.81,47.59359,-54.27349
2021-10-05 22:24:01+00:00,9.0,5.92,12.0,7.01,12.81,47.59359,-54.27349
2021-10-05 22:34:01+00:00,7.0,5.16,4.0,6.08,12.81,47.59359,-54.27349
2021-10-05 22:44:01+00:00,23.0,3.96,33.0,4.98,12.81,47.59359,-54.27349
2021-10-05 22:54:01+00:00,18.0,4.97,20.0,5.79,12.81,47.59359,-54.27349
2021-10-05 23:04:01+00:00,16.0,5.41,13.0,6.1,12.81,47.59359,-54.27349
2021-10-05 23:14:00+00:00,10.0,3.79,17.0,4.26,12.65,47.59359,-54.27349
2021-10-05 23:24:00+00:00,8.0,3.15,28.0,4.36,12.65,47.59359,-54.27349
2021-10-05 23:34:00+00:00,4.0,3.88,8.0,4.45,12.65,47.59359,-54.27349
2021-10-05 23:44:00+00:00,10.0,4.16,3.0,4.53,12.65,47.59359,-54.27349
2021-10-05 23:54:00+00:00,11.0,3.77,14.0,4.26,12.65,47.59359,-54.27349
